GFSWCAN_250_rhum_024.txt.gz
RH
4 4 5 6 6 8 9 10 11 14 14 16 16 18 20 28 46 49 62 74 92 95 100 100 95 87 67 79 88 76 61 71 63 50 62 69 77 79 85 79 79 74 68 68 70 73 63 66 70 85 96 98 97 92
7 7 8 9 10 10 11 14 15 17 17 18 18 21 23 30 45 47 52 70 89 96 100 100 93 72 63 67 80 65 60 67 74 62 63 56 75 79 70 78 72 71 63 67 68 73 65 69 68 73 92 100 92 74
10 10 11 12 13 15 15 17 19 22 23 24 25 32 38 44 48 48 61 94 100 99 100 100 86 63 58 63 81 75 69 65 68 59 57 64 61 67 68 69 71 72 64 74 81 85 73 78 100 89 86 81 71 61
17 17 17 19 20 24 29 34 31 29 30 35 42 47 48 48 49 68 98 100 100 91 100 97 79 65 68 80 82 82 77 70 69 66 72 81 83 87 88 90 98 90 78 77 92 100 100 98 75 73 75 55 54 52
36 49 53 50 43 42 49 57 65 66 66 59 59 60 60 65 93 100 99 100 98 94 100 96 78 76 92 92 86 89 89 80 78 89 99 98 98 100 100 100 100 100 100 100 95 92 96 100 99 88 68 58 52 56
88 73 78 80 99 99 92 89 98 95 78 74 65 73 83 100 100 100 95 100 90 92 100 98 76 83 100 100 100 98 99 95 89 98 100 100 100 98 85 100 100 100 97 91 100 85 64 58 56 58 56 58 68 77
83 76 79 76 70 64 71 90 90 78 79 73 79 97 100 100 100 95 100 100 96 99 100 98 83 85 98 99 100 100 100 100 100 100 100 100 100 89 82 87 100 100 100 100 81 65 58 63 68 68 70 75 72 65
91 93 87 81 98 92 89 88 95 86 79 91 99 100 100 100 100 92 100 100 100 97 96 98 84 81 89 99 100 99 100 100 100 100 95 94 93 100 100 100 100 100 100 80 64 62 67 64 65 73 70 64 62 64
100 100 100 89 85 95 99 99 94 87 97 100 100 100 98 96 97 72 94 99 93 85 98 100 100 96 94 96 100 100 100 97 96 98 99 97 100 100 100 100 100 100 96 75 72 72 70 74 72 65 63 66 73 73
79 90 99 90 92 100 93 92 100 100 100 100 100 100 100 98 100 79 91 98 95 100 100 100 100 100 96 97 98 97 92 88 90 96 100 100 100 100 100 100 96 82 78 77 80 82 80 76 68 71 78 72 74 77
72 82 94 96 86 95 100 90 100 100 100 100 100 98 97 98 99 99 81 90 100 100 100 100 100 100 100 99 94 90 95 98 100 100 100 99 100 100 91 82 78 79 82 78 73 71 70 74 81 79 80 76 70 79
74 81 91 92 86 92 92 91 93 99 96 98 100 100 99 100 100 97 94 91 94 100 100 100 100 100 100 100 100 100 97 90 89 100 100 88 100 86 82 83 78 75 76 76 82 92 91 87 82 80 79 84 95 95
96 85 84 94 95 92 85 92 92 95 98 98 97 99 95 84 80 96 100 94 86 96 100 100 100 100 100 87 72 71 69 73 76 71 73 86 80 73 73 73 81 82 80 84 88 92 88 86 83 88 99 100 98 99
99 100 98 85 84 89 84 80 83 93 94 100 96 88 84 82 81 84 94 99 100 100 95 85 79 80 83 85 84 86 81 78 79 81 83 82 82 81 80 81 83 91 98 97 90 83 83 94 100 98 96 87 73 77
99 100 100 100 83 81 87 93 83 80 98 97 90 88 86 85 89 88 85 85 82 87 100 100 100 100 100 96 94 96 95 92 90 90 94 95 90 86 88 92 94 90 88 88 88 87 86 83 78 73 74 79 73 62
97 98 100 100 100 96 97 100 95 88 82 87 88 96 100 99 98 99 97 96 95 93 89 89 91 90 84 84 85 83 80 82 86 89 88 89 90 89 81 81 82 85 88 85 78 77 78 75 77 75 66 52 41 35
97 97 99 99 92 91 98 100 100 97 99 98 88 84 92 97 99 100 100 99 100 100 98 94 90 88 87 89 93 92 88 86 85 84 81 76 81 95 98 93 84 78 69 72 68 65 68 62 50 41 35 33 27 21
83 95 97 94 97 99 95 97 98 100 100 99 90 86 89 83 85 90 92 92 93 94 96 96 94 93 89 85 81 74 72 77 88 96 97 90 81 80 77 72 70 66 63 58 50 43 41 38 34 35 30 24 18 13
62 74 91 96 79 77 75 83 93 100 100 100 100 100 100 100 97 90 87 90 88 88 85 82 77 76 79 85 89 95 94 87 80 72 69 71 71 70 67 66 65 62 53 46 38 36 35 32 28 23 17 13 9 8
72 66 60 70 72 82 80 74 80 87 93 99 99 97 93 84 86 89 90 89 88 87 86 84 84 89 91 90 84 81 83 82 82 77 72 66 65 64 55 44 38 38 37 34 32 29 25 18 14 11 9 7 6 6
48 59 56 54 47 48 51 61 65 73 74 76 86 86 84 84 82 83 85 86 86 85 82 81 77 73 71 70 69 65 62 62 62 63 59 50 39 35 34 35 35 30 26 22 17 15 13 10 8 7 6 6 6 5
32 35 38 37 37 41 41 36 38 44 52 48 52 53 54 56 55 56 54 49 46 43 46 48 52 57 58 56 54 52 46 41 38 38 37 34 33 29 24 20 19 17 14 12 10 9 8 7 6 6 6 5 5 5
28 26 25 32 33 32 30 30 36 37 37 38 38 40 41 42 44 43 42 42 42 40 39 40 40 40 41 38 35 33 33 33 32 29 25 21 17 16 15 13 12 10 9 8 7 6 6 6 6 6 5 5 4 3
19 17 15 16 16 27 26 28 26 28 29 29 30 31 33 35 37 36 36 35 34 33 32 29 28 29 28 27 25 22 19 16 14 14 12 11 10 10 9 8 7 6 6 6 6 6 5 5 5 5 4 3 3 3
14 14 14 15 14 13 13 12 11 13 14 17 18 20 20 20 20 20 21 21 20 19 16 15 15 14 14 13 13 12 11 10 9 8 7 7 6 6 6 5 5 6 6 5 5 5 4 4 3 2 3 3 3 3
9 9 9 8 9 9 9 9 9 10 10 10 11 11 11 11 11 11 11 12 11 11 11 11 11 10 10 9 8 7 7 6 5 5 5 5 5 5 5 5 4 4 4 3 3 2 2 2 2 2 3 3 3 3
7 8 8 8 9 9 8 8 8 9 9 10 10 10 10 10 10 9 9 9 8 8 7 7 7 6 6 5 5 5 5 5 5 5 4 4 4 3 3 3 2 2 2 2 2 2 2 2 3 3 3 3 3 2
8 9 8 8 8 8 8 8 8 7 7 7 7 7 7 7 7 6 6 6 5 5 5 5 5 5 5 5 5 4 4 3 3 3 3 2 2 2 2 2 2 2 2 2 2 2 3 3 3 3 2 2 2 2
6 6 6 5 5 5 5 5 5 5 5 5 5 4 4 4 4 4 4 4 5 4 4 4 3 3 3 3 3 2 2 2 2 2 2 2 2 2 2 2 2 2 2 3 3 3 3 3 2 2 2 2 2 2
4 4 4 4 4 4 4 4 4 4 4 4 4 4 4 4 4 3 3 3 3 3 2 2 2 2 2 2 2 2 2 2 2 2 2 2 2 2 2 3 3 3 3 2 2 2 2 2 2 2 2 2 2 2
5 4 4 4 4 3 3 3 3 3 3 3 3 2 2 2 2 2 2 2 2 2 2 2 2 2 2 2 2 2 2 2 2 2 2 3 3 3 2 2 2 2 2 2 2 2 2 2 2 2 2 2 2 2
3 3 3 3 3 3 3 2 2 2 2 2 2 2 2 2 2 2 2 2 2 2 2 2 2 2 2 2 2 2 3 2 2 2 2 2 2 2 2 2 2 2 2 2 2 2 2 2 2 2 2 2 2 2
3 3 2 2 2 2 2 2 2 2 2 2 2 2 2 2 2 2 2 2 2 2 2 2 3 3 3 2 2 2 2 2 2 2 2 2 2 2 2 2 1 1 1 1 1 2 2 2 2 2 2 2 2 2

GFSWCAN_250_rhum_027.txt.gz
RH
2 2 2 2 2 3 3 3 4 4 5 7 10 12 12 15 18 19 22 28 67 98 90 98 100 100 91 96 96 69 58 62 65 77 64 53 57 70 80 77 79 82 84 85 92 95 89 86 78 84 72 68 71 82
3 3 3 3 3 4 4 4 5 6 7 8 10 13 15 18 20 19 25 38 85 89 96 99 100 99 100 87 91 70 59 67 62 78 85 72 56 69 83 86 80 84 86 93 89 92 73 67 69 64 64 84 89 96
4 4 4 4 4 5 6 6 7 8 9 10 12 15 18 19 21 27 57 75 79 78 92 100 100 97 100 86 94 72 60 79 89 100 91 80 74 80 84 92 82 80 73 69 80 84 65 60 55 70 83 88 91 86
6 6 6 7 8 8 8 9 10 10 12 15 18 17 17 19 28 40 57 82 78 92 87 100 99 94 100 96 93 72 81 98 100 100 96 89 90 90 84 81 86 76 62 58 67 69 75 84 83 95 75 71 96 90
10 11 11 12 12 12 12 12 12 14 15 16 16 17 21 23 29 40 66 82 74 82 85 100 100 98 100 96 93 73 84 96 99 95 93 94 99 98 88 71 70 78 77 82 90 100 100 87 76 78 87 94 81 69
17 16 18 17 15 15 16 16 18 20 22 24 25 26 30 36 42 50 70 69 71 79 84 88 96 97 98 91 90 70 70 81 96 93 83 82 89 94 92 93 97 98 100 100 100 91 78 87 86 90 89 82 64 53
31 26 22 25 28 29 31 33 33 32 33 35 40 47 53 54 56 75 78 88 89 80 85 95 99 98 92 94 86 63 58 73 92 90 86 85 87 92 86 96 100 100 100 99 89 80 78 83 75 78 76 70 65 59
70 67 62 54 54 63 67 64 61 55 47 51 48 49 51 58 70 73 77 75 69 65 94 95 92 97 91 91 78 63 66 87 90 88 92 89 93 97 96 100 100 100 94 93 94 89 83 84 86 74 64 62 62 65
100 100 100 99 98 88 79 77 80 79 74 71 66 77 81 84 82 74 74 72 74 91 98 91 100 100 92 92 88 76 86 94 97 96 98 99 100 98 100 99 98 93 88 84 76 84 94 88 75 66 63 68 77 75
84 100 100 94 86 83 86 86 87 89 82 70 69 70 78 75 63 86 86 81 85 100 90 95 100 98 89 91 88 79 85 94 92 98 97 94 98 100 100 96 93 91 87 87 94 91 78 65 62 67 77 72 69 78
65 69 74 77 75 70 64 64 80 95 94 91 93 86 81 87 88 92 95 82 84 90 87 90 94 96 95 91 90 84 80 78 80 85 86 90 99 100 92 89 88 84 84 87 72 64 64 70 73 73 76 83 94 99
68 68 80 87 90 91 85 88 100 100 100 100 100 100 100 99 99 95 92 98 94 82 95 100 100 100 100 99 98 96 89 81 77 86 90 93 100 99 95 92 87 77 72 70 70 72 74 77 85 94 98 100 97 94
96 90 77 74 81 80 88 82 88 97 100 100 100 98 86 89 96 99 100 100 100 92 81 84 85 88 91 90 94 96 90 83 88 88 96 100 100 100 94 83 71 75 83 88 85 86 93 94 96 100 100 99 99 98
93 99 100 100 87 79 92 100 95 92 96 98 93 89 89 93 100 100 100 99 100 100 100 98 87 85 98 99 95 95 89 86 80 78 92 93 80 73 69 76 90 97 97 96 97 90 98 100 100 100 100 99 89 76
100 96 99 100 100 99 97 93 98 100 89 85 90 91 90 93 100 100 100 96 96 96 97 97 95 92 90 83 85 78 72 70 80 93 88 78 78 89 99 100 98 90 83 86 97 99 100 100 100 95 87 73 69 69
93 97 100 100 100 100 99 100 98 93 94 91 89 92 96 99 100 98 90 86 85 84 88 94 97 100 99 100 100 100 100 100 100 100 97 93 85 78 72 75 80 81 82 90 97 94 88 81 74 70 64 63 60 53
86 83 93 100 100 100 100 100 98 92 89 88 88 87 93 100 100 100 100 100 100 100 93 87 86 88 84 77 77 82 83 83 80 78 78 78 77 77 82 87 89 94 90 83 76 69 69 67 65 61 56 54 46 35
85 85 83 87 85 88 99 100 100 100 84 81 86 92 93 96 98 95 98 100 100 96 91 94 93 94 93 86 82 79 79 79 81 86 90 94 95 92 90 90 86 80 74 74 73 68 64 62 53 51 46 38 28 28
81 95 92 88 96 97 97 98 99 99 93 87 89 90 81 80 89 95 96 94 96 98 96 92 91 97 99 100 99 99 99 100 100 99 94 90 86 81 80 78 75 72 68 65 64 58 50 44 38 32 27 27 24 23
80 80 81 89 93 95 100 98 94 92 92 90 83 80 80 82 84 86 86 83 80 83 85 84 84 84 85 87 87 85 79 74 71 73 75 78 74 68 66 68 67 62 59 54 48 41 32 29 30 29 25 21 15 12
65 62 60 63 71 93 92 86 88 89 83 82 81 72 65 72 72 76 81 80 77 73 74 73 75 78 78 78 75 71 72 74 72 69 67 65 62 61 49 48 50 44 39 34 26 26 24 23 21 16 13 11 8 7
52 51 50 46 45 53 66 68 80 92 90 78 63 52 50 51 50 50 47 47 49 55 63 63 60 55 52 50 50 52 55 57 55 50 46 46 46 44 38 31 26 24 22 21 20 18 17 15 11 9 8 6 6 6
40 42 39 34 33 39 43 46 53 50 53 54 55 49 43 37 31 26 27 28 30 32 34 34 33 33 34 35 38 39 40 41 41 41 38 34 31 29 28 23 20 19 18 16 14 12 10 8 6 6 6 6 5 4
35 38 38 40 34 37 35 33 29 32 40 38 34 33 32 32 32 33 32 30 30 32 33 34 34 35 35 35 35 34 31 30 29 28 27 26 22 17 15 15 13 11 10 9 7 6 6 6 6 5 4 3 3 3
19 22 20 23 21 21 24 25 24 22 23 24 26 28 26 23 24 27 31 33 34 34 33 32 31 30 29 28 26 24 21 18 17 16 14 14 13 12 10 9 8 6 6 5 5 5 4 3 3 3 3 3 2 2
12 12 12 12 10 10 10 10 12 12 13 13 16 16 15 19 22 21 20 19 18 18 18 19 20 21 21 20 18 15 14 13 12 11 10 8 7 6 5 5 5 5 4 3 3 3 3 3 2 2 2 2 2 3
7 7 7 7 8 9 9 9 10 10 11 11 11 11 11 12 12 12 12 12 12 12 12 11 11 11 10 10 9 9 8 8 7 6 6 5 4 4 4 3 3 3 3 2 2 2 2 2 2 2 3 3 3 3
6 7 7 8 8 9 9 9 9 8 8 8 8 8 7 7 7 7 7 6 6 6 6 6 7 6 6 6 5 5 5 4 4 4 4 4 3 3 3 3 2 2 2 2 2 2 2 2 3 2 2 2 2 2
6 6 6 5 5 5 5 5 5 5 5 5 5 5 5 5 5 5 5 5 5 5 5 4 4 4 4 4 4 3 3 3 3 3 3 2 2 2 2 2 2 2 2 2 2 2 2 2 2 2 2 2 2 2
4 4 4 4 4 4 4 4 4 4 4 4 4 4 4 4 4 4 4 4 4 4 3 3 3 3 3 2 2 2 2 2 2 2 2 2 2 2 2 2 2 2 2 2 2 2 2 2 2 2 2 2 2 2
4 4 4 4 4 4 4 4 4 4 4 4 3 3 3 3 3 3 3 3 2 2 2 2 2 2 2 2 2 2 2 2 2 2 2 2 2 2 2 2 2 2 2 2 2 2 2 2 2 2 2 2 2 2
4 4 4 4 4 3 3 3 3 3 2 2 2 2 2 2 2 2 2 2 2 2 2 2 2 2 2 2 2 2 2 2 2 2 2 2 2 2 2 2 2 2 2 2 2 2 1 1 1 2 2 2 1 1
3 3 3 3 3 3 3 2 2 2 2 2 2 2 2 2 2 2 2 2 2 2 2 2 2 2 2 2 2 2 2 2 2 2 2 2 2 2 1 1 1 1 1 1 1 1 1 1 1 1 1 1 2 2

GFSWCAN_250_rhum_030.txt.gz
RH
1 1 1 1 1 1 1 1 2 2 2 2 3 3 5 10 14 18 24 29 33 45 63 58 62 64 61 100 100 100 95 88 75 46 45 32 31 47 49 42 54 68 72 73 81 84 85 80 75 76 81 90 98 89
2 1 1 1 1 1 2 2 2 2 2 2 3 5 9 12 18 21 26 38 41 65 41 49 32 48 91 100 99 100 100 93 85 51 63 61 37 50 52 52 54 77 88 86 83 83 88 88 89 79 90 100 83 86
2 2 2 2 2 2 2 3 3 3 3 4 5 6 10 17 19 24 30 60 100 94 95 54 40 78 99 100 100 100 100 94 93 58 56 63 51 57 60 56 57 66 94 93 93 87 83 89 83 77 94 79 77 88
3 3 3 3 3 3 3 3 3 4 4 5 7 10 14 19 20 26 18 79 94 88 62 40 48 98 100 100 100 100 98 94 98 69 58 61 56 62 74 74 71 70 94 88 100 92 96 70 69 76 65 83 100 99
5 4 4 4 4 4 4 5 4 5 6 7 9 13 17 19 22 20 27 53 79 57 37 39 89 99 100 100 100 100 96 86 91 75 61 69 81 84 82 81 90 93 90 83 86 96 92 59 63 80 100 100 92 75
7 6 6 7 6 6 5 5 7 7 9 10 13 15 18 21 22 24 30 28 65 45 40 71 98 100 100 100 100 100 92 84 92 78 68 86 100 92 91 98 97 100 99 91 92 81 67 83 100 100 95 82 81 75
10 9 9 8 8 8 8 8 8 9 11 13 15 16 19 24 27 28 31 41 44 34 56 98 100 97 100 100 100 100 96 85 92 86 73 96 98 94 95 96 100 100 97 94 82 74 75 87 100 98 95 79 77 78
27 20 16 16 14 13 12 12 14 14 15 16 16 17 21 26 99 39 39 40 43 40 92 100 99 100 93 100 100 100 100 89 96 90 76 85 98 100 94 98 100 99 93 93 92 89 85 85 80 76 76 80 87 92
44 35 30 26 22 21 21 21 19 18 17 18 19 19 22 22 20 22 32 42 57 71 98 100 100 100 98 100 99 98 97 95 91 86 78 75 75 78 95 98 96 94 88 98 99 98 92 81 80 81 82 84 83 80
76 70 64 47 45 42 38 35 32 30 27 27 27 29 33 36 34 39 61 75 91 99 97 100 100 96 86 94 96 100 100 99 86 85 80 71 63 67 80 96 100 95 92 91 82 80 82 85 86 87 86 90 84 75
84 84 87 84 79 71 61 51 45 38 38 42 47 52 53 52 57 61 81 70 77 96 100 100 97 92 86 82 98 96 86 82 84 89 87 73 66 79 97 97 92 90 84 81 78 79 80 84 88 90 81 76 76 84
78 82 82 81 89 88 92 94 90 80 79 69 61 58 58 62 65 70 71 75 83 89 96 95 88 84 81 97 99 94 92 90 89 92 89 85 86 90 87 87 85 82 79 79 81 82 86 86 80 75 75 80 80 80
68 66 70 71 74 80 85 99 98 98 96 92 90 75 71 73 73 68 68 77 87 96 96 90 78 82 99 100 100 92 82 83 88 88 83 91 98 92 87 85 85 84 85 88 90 84 80 77 76 82 86 91 96 90
100 100 100 100 95 91 83 78 87 98 97 96 97 100 98 97 99 100 100 95 98 94 90 86 88 93 92 86 86 83 77 78 84 93 100 100 100 100 95 89 94 95 94 93 95 92 92 95 99 100 100 88 85 92
100 99 100 100 100 100 100 100 100 100 100 100 98 96 100 100 100 100 100 100 100 98 92 97 99 98 96 94 85 83 78 80 84 100 100 97 94 92 90 88 88 94 95 92 94 100 100 100 98 85 86 82 82 90
98 99 100 98 100 100 100 100 100 100 100 100 100 100 100 99 100 100 100 100 100 99 99 98 94 91 83 83 95 94 87 80 85 86 84 86 87 87 89 94 95 96 97 99 100 100 98 84 81 82 82 83 90 85
100 99 98 99 97 90 95 100 100 98 100 100 100 100 100 100 98 100 100 100 100 100 100 99 97 89 82 82 84 84 87 90 91 97 94 88 88 87 85 84 87 92 94 89 83 79 86 86 82 80 88 85 73 66
82 87 90 97 100 100 98 96 96 99 94 97 99 100 100 100 100 100 100 100 100 100 100 100 100 100 100 100 100 99 96 90 86 83 80 80 83 87 89 90 89 88 87 84 81 86 83 85 89 81 66 59 54 53
100 95 82 82 88 92 92 100 99 94 90 89 90 94 92 94 94 93 95 98 99 98 97 94 90 93 95 92 92 92 91 91 92 94 95 93 91 89 87 86 87 86 86 87 85 86 75 60 56 54 53 51 42 35
99 90 88 83 78 77 78 79 90 97 91 85 78 72 73 81 87 91 90 87 83 84 91 93 94 95 98 97 93 90 89 86 84 83 85 89 91 91 88 83 79 73 69 61 52 50 50 49 48 46 39 32 26 24
87 78 76 78 76 74 82 76 77 73 73 76 81 82 76 69 62 61 62 63 69 72 75 78 82 83 80 78 78 78 76 74 78 80 77 71 65 61 56 50 46 44 46 46 44 42 41 36 32 28 24 20 15 13
67 70 67 66 71 73 77 78 74 68 66 60 63 59 59 61 60 58 57 57 56 56 52 51 50 51 53 54 52 52 53 50 46 44 41 40 40 38 35 34 36 40 39 36 33 27 23 19 16 14 12 11 10 9
68 69 73 69 63 58 61 62 60 55 54 54 52 50 53 62 69 70 71 71 72 68 65 61 55 50 46 43 42 42 41 38 34 32 30 31 34 38 38 36 35 30 23 18 16 13 11 10 10 9 9 8 7 6
59 66 68 59 55 52 54 52 50 51 52 52 51 50 47 46 48 45 43 42 40 41 40 40 38 34 32 32 32 31 29 28 29 31 30 29 28 26 21 18 16 14 13 11 9 8 8 8 8 7 6 6 5 4
30 29 28 30 32 33 31 31 33 35 30 30 32 33 35 41 42 41 38 34 31 30 29 28 27 26 25 22 20 19 18 19 19 18 16 15 13 12 11 11 9 8 7 8 8 7 6 6 5 4 4 3 3 2
17 17 17 16 16 16 15 15 17 17 18 20 20 20 20 22 24 24 23 23 22 21 19 18 20 20 18 16 14 14 14 14 14 12 11 10 8 8 7 7 8 7 6 6 5 4 4 3 3 3 2 2 2 2
9 8 8 8 7 7 6 7 8 10 12 13 13 13 13 13 13 13 13 13 13 13 12 12 11 11 10 9 9 9 9 8 8 8 8 7 7 7 6 6 6 5 4 4 3 3 2 2 2 2 2 2 3 3
6 6 6 6 6 6 7 8 8 8 8 8 8 8 8 8 8 7 7 7 8 8 8 8 8 8 7 7 7 6 6 6 6 6 6 5 5 4 4 4 3 3 2 2 2 2 2 2 3 3 3 3 2 2
6 5 5 5 5 5 5 5 4 5 5 5 5 5 5 6 6 6 6 6 6 6 5 5 5 5 4 4 4 4 4 4 4 4 3 3 3 2 2 2 2 2 2 2 2 3 3 3 2 2 2 2 2 2
5 5 4 4 4 4 4 4 4 4 4 4 4 4 4 4 4 4 4 4 3 3 3 3 3 3 3 3 3 2 2 2 2 2 2 2 2 2 2 2 2 2 2 2 2 2 2 2 2 2 1 1 1 1
4 4 4 4 4 4 3 3 3 3 4 4 4 4 3 3 3 3 3 3 3 3 2 2 2 2 2 2 2 2 2 2 2 2 2 2 2 2 2 2 2 2 2 2 2 2 1 1 1 1 1 1 1 1
4 4 4 4 4 4 3 3 3 3 2 3 3 3 2 2 2 2 2 2 2 2 2 2 2 2 2 2 2 2 2 2 2 2 2 2 2 2 2 2 1 1 1 1 1 1 1 1 1 1 1 1 1 1
4 3 3 3 3 3 3 3 3 2 2 2 2 2 2 2 2 2 2 2 2 2 2 2 3 2 2 2 2 2 2 2 2 2 2 1 1 1 1 1 1 1 1 1 1 1 1 1 1 1 1 1 1 1

GFSWCAN_250_rhum_033.txt.gz
RH
1 1 1 1 1 1 1 1 1 1 1 2 2 3 4 6 7 8 10 14 18 29 41 51 60 65 74 99 97 98 79 100 92 69 69 98 95 66 36 31 30 46 56 56 65 65 74 86 88 76 74 78 85 76
1 1 1 1 1 1 1 1 1 1 2 2 2 3 4 6 9 12 12 15 19 23 34 49 55 50 65 64 87 82 84 100 100 100 89 100 98 61 41 36 31 40 46 52 64 72 76 84 81 87 93 95 78 82
1 1 1 1 1 1 1 1 1 1 1 2 2 3 4 8 12 14 15 18 20 26 31 33 40 41 57 51 62 57 92 100 100 100 92 91 90 68 49 42 32 46 50 56 57 63 85 84 91 92 99 97 91 92
1 1 1 1 1 1 1 1 1 1 2 2 3 4 5 8 14 18 22 28 33 47 71 54 43 59 52 68 55 94 100 100 100 100 97 97 99 78 58 59 50 48 52 56 68 56 75 83 94 98 100 98 92 95
2 2 2 2 2 2 2 2 2 2 2 3 4 5 8 13 18 24 25 34 63 98 100 100 98 92 84 89 97 100 100 100 100 100 91 90 99 86 67 56 62 60 68 66 68 89 77 72 75 78 84 86 94 98
4 4 3 3 2 2 2 3 2 3 3 4 5 7 11 16 18 28 39 100 100 100 100 100 100 98 100 100 78 100 99 82 88 90 100 97 100 100 83 63 59 60 63 77 88 90 100 100 100 82 75 81 74 69
5 4 4 4 3 3 3 3 3 3 4 5 7 10 14 20 69 100 100 100 99 100 100 100 100 99 97 88 63 100 99 81 91 100 100 100 100 100 91 78 67 66 77 88 89 92 98 100 100 98 94 87 84 89
8 7 6 4 4 4 4 4 5 5 6 8 11 14 20 100 96 100 100 100 100 100 100 100 84 86 100 87 60 99 100 96 97 100 100 100 100 99 92 88 77 75 84 87 91 85 80 81 79 80 85 87 92 95
11 11 11 9 7 6 7 7 7 7 9 12 14 22 48 99 75 98 91 100 100 100 100 95 95 100 100 67 74 100 100 100 100 92 100 100 100 99 100 98 88 85 94 97 92 87 80 74 76 79 84 82 84 82
17 15 14 14 12 10 9 8 10 12 12 16 21 23 99 99 99 99 92 64 74 92 87 98 78 95 94 58 79 98 100 100 100 100 100 100 99 100 100 100 99 93 97 100 98 92 86 82 86 89 85 81 80 81
25 20 20 21 20 18 17 14 13 13 15 18 21 24 47 54 65 77 82 98 100 97 90 76 51 44 63 77 95 100 99 96 97 98 90 93 99 98 97 100 100 99 95 86 77 69 65 67 78 83 82 85 86 87
46 41 33 29 27 29 34 34 28 27 29 33 32 28 30 23 20 21 33 79 86 49 41 50 47 55 98 100 99 98 86 88 82 90 85 82 96 94 91 93 97 98 91 82 80 72 69 72 78 82 85 86 87 86
88 72 72 65 54 52 44 32 29 28 31 33 35 34 32 27 26 27 40 43 50 63 68 63 60 67 81 85 84 84 77 70 80 82 83 82 96 99 91 84 80 79 77 82 80 78 84 86 89 90 91 88 84 80
99 97 84 82 87 84 87 86 78 62 43 40 40 42 35 33 37 41 42 48 53 83 95 83 68 58 67 82 86 83 83 82 81 88 85 98 100 100 95 88 78 77 84 84 86 90 93 92 90 91 89 84 84 90
100 100 100 100 100 100 97 91 94 92 96 89 75 67 67 72 74 71 75 81 86 95 93 82 83 86 81 78 83 84 84 87 95 96 96 94 91 88 86 86 84 88 91 93 98 100 98 95 94 95 95 92 88 85
100 98 100 100 100 100 100 100 100 100 100 100 100 100 100 100 100 100 100 100 98 94 92 91 93 89 84 84 87 90 86 80 94 94 94 94 93 92 94 90 90 98 100 100 98 97 100 99 96 92 84 87 90 87
89 94 91 97 100 100 100 100 100 100 100 100 100 100 100 100 100 96 94 93 93 91 91 92 85 87 90 89 88 88 86 86 92 97 94 90 100 100 100 100 100 100 100 98 96 94 91 88 89 91 88 91 93 83
90 84 87 89 92 93 90 85 85 98 100 100 100 100 100 100 100 100 100 100 100 100 100 100 100 100 100 100 100 100 100 100 100 100 100 98 97 95 93 90 87 87 87 88 90 93 94 96 94 85 76 73 72 72
99 100 100 95 86 85 92 99 97 97 100 100 99 91 87 87 86 90 97 100 100 100 100 100 98 98 96 98 100 98 94 90 88 86 86 87 89 93 97 98 99 98 95 89 82 76 74 72 68 65 68 64 54 45
90 97 96 100 100 99 96 93 92 92 88 92 97 99 100 100 99 94 86 79 78 78 80 82 81 84 87 86 85 82 80 78 77 79 82 84 85 83 81 79 76 74 71 71 70 68 65 62 57 48 42 36 27 22
99 98 93 91 91 88 88 93 95 96 93 90 83 80 84 90 94 97 99 100 99 98 98 96 95 92 93 92 90 85 81 79 77 75 76 76 75 74 71 69 67 65 64 59 52 46 40 34 29 25 22 21 22 19
75 78 84 86 88 77 71 72 70 65 62 67 71 70 69 71 72 72 71 79 80 79 80 79 78 77 77 75 71 68 65 63 61 61 60 62 62 59 53 48 46 42 36 32 26 21 19 18 16 17 16 14 12 10
76 73 74 73 72 68 66 61 64 63 61 57 53 52 58 63 61 57 60 60 60 59 59 60 60 59 59 58 57 58 60 60 55 48 45 45 46 42 35 29 25 20 18 18 17 16 16 15 13 12 10 9 9 8
58 63 63 65 63 58 49 50 52 55 56 56 56 53 51 49 48 49 48 48 47 44 43 42 43 42 44 46 48 49 46 42 40 38 34 30 26 24 23 22 21 19 17 13 11 10 10 9 8 7 6 6 5 5
39 41 39 43 52 50 44 40 39 41 44 41 40 41 41 39 40 39 35 33 33 33 32 30 28 25 24 24 25 25 24 23 21 20 20 19 16 15 13 12 11 9 9 7 7 6 6 6 5 5 4 4 3 3
32 29 26 25 26 26 28 28 28 26 24 24 26 27 28 28 28 25 23 27 29 26 24 22 20 21 21 20 21 21 20 18 17 15 13 11 10 8 7 7 6 6 6 6 5 4 4 4 3 3 3 2 2 2
16 15 14 13 13 14 14 12 11 11 10 10 12 13 14 15 14 13 13 13 13 13 13 12 11 10 10 10 10 10 10 9 8 7 7 7 6 6 6 6 5 5 4 4 3 3 3 3 2 2 2 2 2 3
8 7 7 8 7 7 7 7 7 6 6 6 6 6 6 6 6 6 6 6 6 7 7 7 7 7 6 6 6 6 6 6 6 5 5 5 4 4 4 4 3 3 3 3 2 2 2 2 2 2 2 2 2 2
6 6 6 6 5 6 5 5 5 5 5 5 5 5 5 5 5 5 5 5 5 5 5 5 5 4 4 4 4 4 4 4 4 4 4 4 3 3 2 2 2 2 2 2 2 2 2 2 2 2 2 2 2 2
6 6 6 5 5 4 4 4 4 4 4 4 4 4 4 4 4 4 4 4 4 4 4 3 3 4 4 3 3 3 3 3 2 2 2 2 2 2 2 2 2 2 2 2 2 2 2 2 2 1 1 1 1 1
6 5 5 4 4 4 4 4 4 4 4 4 4 3 3 3 4 3 3 3 3 3 3 3 3 2 2 2 2 2 2 2 2 2 2 2 2 2 2 2 2 2 2 2 1 1 1 1 1 1 1 1 1 1
4 4 5 5 4 4 3 3 3 3 2 2 3 3 2 2 2 2 2 2 2 2 2 2 2 2 2 2 2 2 3 2 2 2 2 2 2 2 2 1 1 1 1 1 1 1 1 1 1 1 1 1 1 1
4 4 4 4 3 3 3 3 2 2 2 3 2 2 2 2 2 2 2 2 2 2 2 2 2 2 2 2 2 2 2 2 2 1 1 1 1 1 1 1 1 1 1 1 1 1 1 1 1 1 1 1 1 1

GFSWCAN_250_rhum_036.txt.gz
RH
1 1 1 1 1 1 1 1 1 1 1 2 2 2 3 4 5 4 5 14 27 34 48 51 60 85 75 70 80 98 93 97 99 99 100 100 86 60 62 79 75 98 56 34 30 41 64 63 58 71 92 99 85 76
2 1 2 1 1 1 1 1 1 1 1 2 2 2 3 4 5 5 5 12 28 34 36 44 57 65 61 81 100 98 99 100 100 94 95 96 80 72 62 72 80 98 69 35 30 31 57 65 80 85 84 85 90 100
2 2 1 1 1 1 1 1 1 1 1 2 2 3 3 4 5 6 8 11 23 32 39 44 46 56 55 74 82 63 68 70 79 95 94 89 70 62 54 68 70 98 70 39 34 34 51 59 69 94 93 87 87 86
2 1 1 1 1 1 1 1 1 1 1 2 2 3 4 5 6 10 10 11 18 23 28 33 37 56 61 74 66 64 72 93 97 83 90 100 86 92 87 66 93 95 81 47 42 40 42 54 62 74 89 98 94 94
2 1 1 1 1 1 1 1 1 1 2 2 3 3 4 5 8 10 11 13 14 15 21 29 36 41 43 47 52 52 52 64 86 100 93 98 97 100 100 67 87 100 88 68 54 49 50 54 54 60 67 76 92 100
2 1 1 1 1 1 1 1 1 2 2 2 3 3 5 8 10 12 14 16 19 20 26 35 37 42 43 39 86 98 100 100 98 100 100 95 100 100 100 86 90 98 98 91 66 65 70 69 64 67 78 91 98 99
3 2 2 2 1 1 1 1 2 2 2 3 4 4 7 11 14 16 18 20 26 31 35 49 45 51 45 92 94 100 100 100 98 85 80 79 100 100 99 100 100 95 99 100 98 76 64 66 68 66 65 67 68 65
4 3 2 2 2 2 2 2 2 3 3 4 5 8 13 18 21 26 30 40 80 94 99 75 79 99 100 100 100 87 79 97 100 100 100 96 100 95 82 100 100 100 100 100 100 98 88 77 73 77 82 84 84 84
4 4 3 3 3 3 3 3 3 3 4 6 9 13 21 27 41 55 72 80 100 100 97 84 84 95 100 100 100 100 79 100 100 100 100 100 100 94 93 77 100 100 100 100 98 97 100 93 86 82 80 83 86 86
6 5 5 5 5 4 4 3 4 5 7 12 16 22 32 67 100 100 100 100 100 100 100 100 100 100 100 100 100 100 100 93 100 100 100 92 82 100 100 86 81 100 100 100 100 83 81 84 90 89 88 86 85 82
13 10 9 7 6 7 7 7 8 9 12 17 24 35 53 89 100 100 100 100 100 100 100 100 100 100 98 96 99 94 97 90 88 72 90 90 98 100 100 100 100 98 91 83 82 84 87 91 89 89 89 86 85 87
22 23 18 15 14 15 15 14 13 14 19 30 51 67 66 61 94 87 94 100 100 100 100 100 100 80 69 79 90 89 88 93 90 90 94 97 99 97 100 97 94 91 82 81 82 70 71 77 86 89 87 89 93 95
21 26 29 27 23 17 20 19 17 22 20 26 64 76 73 76 76 73 69 67 52 63 66 58 71 95 100 100 99 85 68 59 76 78 83 99 100 100 100 84 79 89 90 81 68 75 84 86 86 87 89 90 91 90
40 26 34 38 36 36 28 23 20 17 21 24 22 23 38 46 52 40 40 52 50 59 68 77 99 100 100 100 100 98 78 65 53 58 82 100 100 100 96 89 80 71 70 68 73 84 85 78 82 92 92 89 86 86
86 75 46 39 46 46 40 36 36 33 27 35 31 22 30 40 41 58 78 85 94 98 98 97 95 100 78 55 46 42 53 58 65 69 87 97 94 89 81 79 77 75 78 81 87 87 81 88 95 92 92 94 93 91
88 83 100 81 67 54 54 56 58 52 46 62 73 70 85 94 97 96 93 91 94 74 91 100 95 100 100 92 83 88 89 75 65 76 80 83 84 80 76 76 77 81 89 93 96 99 100 100 98 97 94 87 81 84
95 90 75 87 89 87 83 82 79 78 76 78 80 74 77 81 91 88 55 59 58 72 84 86 77 81 88 79 77 88 94 97 99 91 77 69 77 77 82 93 99 98 98 98 94 91 89 84 80 77 80 90 94 85
98 96 100 93 74 66 77 94 98 100 95 92 89 88 83 82 70 65 61 59 59 61 61 66 72 74 80 86 95 97 93 88 87 87 86 85 87 95 99 98 95 93 91 89 85 82 82 87 92 95 90 86 84 89
91 98 97 100 100 95 84 83 80 80 74 73 79 88 92 94 95 96 93 92 96 99 100 99 98 99 99 98 93 88 85 81 80 81 86 90 93 96 96 93 90 87 85 88 93 96 93 86 82 81 80 74 72 73
96 86 84 89 96 100 100 98 96 99 100 100 99 95 90 89 84 82 87 90 89 84 78 74 69 67 65 65 73 82 84 81 81 82 82 81 80 80 81 81 83 84 82 77 73 72 70 66 66 68 65 58 51 44
99 99 97 88 86 87 90 88 85 85 87 94 100 100 100 99 96 97 100 96 96 99 98 99 99 97 97 95 90 85 85 88 90 89 86 83 78 74 71 69 66 64 66 66 65 64 61 52 43 37 36 36 36 30
88 90 91 91 94 97 94 90 87 88 86 82 78 76 80 84 88 90 96 95 94 90 90 88 86 84 81 79 76 74 74 73 71 69 67 65 63 64 65 66 66 62 53 46 42 40 39 40 36 28 20 16 14 12
62 66 66 69 71 70 76 76 75 69 71 69 65 63 65 65 61 56 58 60 64 68 73 75 75 72 68 64 61 60 59 60 59 56 53 50 47 45 42 39 37 35 33 29 25 21 18 16 14 12 11 9 9 9
66 74 62 58 61 61 56 52 56 58 56 53 48 44 45 44 43 41 42 45 46 42 40 39 40 43 45 45 44 44 42 41 41 40 37 34 30 29 27 24 22 21 21 21 19 16 12 10 9 8 8 7 6 6
54 55 54 54 56 54 49 48 48 46 46 41 39 38 35 32 32 34 35 35 37 40 42 40 37 38 38 38 37 36 36 35 34 33 32 31 29 24 21 19 16 14 12 10 8 8 7 7 6 5 4 4 4 3
42 45 43 42 43 41 37 36 34 32 28 24 22 19 16 18 19 19 21 22 23 22 21 21 21 19 17 16 15 14 14 14 14 13 13 12 11 10 10 9 8 7 7 6 6 5 5 4 4 3 3 2 2 2
18 17 17 20 21 20 18 17 15 14 12 11 9 8 9 10 12 12 11 10 9 8 8 8 7 6 6 7 7 7 7 7 7 7 7 7 7 7 6 5 5 4 4 4 4 3 3 2 2 2 2 2 2 3
8 8 8 8 8 8 8 7 7 6 5 5 5 6 6 6 6 6 5 5 5 5 5 5 5 5 5 5 5 5 5 5 5 4 4 4 4 4 4 4 3 3 3 2 2 2 2 2 2 2 2 2 2 2
7 7 7 7 7 7 6 6 5 5 5 5 4 4 4 4 4 4 4 4 4 4 4 4 4 4 4 3 3 3 3 3 3 3 3 3 2 2 2 2 2 2 2 2 2 2 2 2 2 2 2 1 1 1
6 6 6 6 5 5 5 5 5 4 4 4 4 4 4 4 4 4 4 4 4 3 3 3 3 3 3 3 3 3 3 2 2 2 2 2 2 2 2 2 2 2 2 2 2 2 1 1 1 1 1 1 1 1
6 6 5 5 4 4 5 5 4 3 3 4 4 4 3 3 3 3 3 3 3 3 3 3 3 2 2 2 2 2 2 2 2 2 2 2 2 2 2 2 2 2 1 1 1 1 1 1 1 1 1 1 1 1
5 5 5 5 5 5 4 3 3 3 3 3 3 3 2 2 2 2 2 2 2 2 2 2 2 2 2 2 2 2 2 2 2 2 2 2 2 2 2 2 2 2 2 1 1 1 1 1 1 1 1 1 1 1
4 5 5 4 4 3 3 3 3 3 3 3 2 2 2 2 2 2 2 2 2 2 2 3 3 3 3 3 2 2 2 2 2 2 1 2 2 2 2 2 1 1 1 1 1 1 1 1 1 1 1 1 1 1

GFSWCAN_250_rhum_042.txt.gz
RH
2 2 2 2 2 2 2 2 2 2 2 2 2 2 2 3 4 5 5 5 4 7 23 34 55 75 100 100 100 100 100 100 100 99 100 100 100 100 100 100 92 98 88 93 70 73 70 54 50 64 75 58 39 32
2 2 2 2 2 2 2 3 3 2 2 2 2 2 2 3 4 4 4 5 5 7 19 28 43 94 100 100 100 100 100 100 100 100 100 100 100 100 100 100 100 100 87 78 74 86 72 60 53 53 78 80 67 51
2 2 2 2 2 2 2 3 3 3 3 2 2 2 2 2 3 4 5 5 5 6 11 26 40 72 100 100 100 93 98 100 100 100 100 100 100 100 100 100 98 82 83 70 76 91 81 70 56 62 83 87 88 75
2 2 2 2 2 2 2 2 2 2 2 2 2 2 2 2 3 4 5 5 6 7 9 23 34 47 90 98 100 94 90 100 100 100 100 100 100 100 100 99 88 79 79 88 95 100 74 72 84 71 73 77 81 88
2 2 2 2 3 3 3 2 2 2 2 2 2 2 2 3 3 4 4 5 7 8 9 18 30 38 70 100 100 92 92 100 100 100 100 100 100 100 100 98 90 98 100 85 90 84 79 96 100 94 80 91 94 99
2 2 2 2 2 2 2 2 2 2 2 2 2 2 2 2 3 3 4 6 8 7 10 17 32 38 66 100 100 92 100 98 100 100 100 100 100 91 88 97 100 98 91 83 81 76 87 100 100 100 100 100 99 92
2 2 2 2 2 2 2 2 2 2 2 2 2 2 2 2 3 4 5 6 8 8 9 12 24 35 52 89 80 75 86 100 100 100 100 100 99 94 100 99 100 100 100 96 90 77 100 100 100 100 100 93 98 99
2 2 2 2 1 2 2 2 2 2 2 2 2 2 2 3 3 4 5 6 4 5 6 9 20 33 46 76 86 100 100 100 100 100 100 100 100 100 100 93 94 100 100 92 100 95 99 96 99 100 100 100 88 76
2 2 2 2 2 2 2 2 2 2 2 2 2 2 3 4 4 5 5 6 7 8 11 14 21 31 47 88 100 100 100 100 92 87 96 99 91 97 100 90 84 89 100 95 93 96 100 100 100 100 100 100 100 100
2 2 2 2 2 2 2 2 2 3 3 3 3 4 4 4 4 5 7 8 8 10 12 16 23 30 43 67 78 69 82 78 63 66 84 86 89 96 84 75 90 100 100 100 100 100 100 100 84 98 100 100 100 100
2 2 2 2 2 2 2 3 3 4 4 4 5 5 5 6 7 8 10 10 14 19 21 22 24 30 39 47 58 57 60 52 53 58 60 65 70 84 79 82 100 100 100 100 86 84 95 98 94 85 72 93 100 100
4 4 4 4 4 4 4 4 5 5 5 5 6 7 8 9 8 12 12 13 14 15 18 20 27 33 39 40 44 48 49 52 55 69 100 98 91 95 100 100 100 100 92 75 100 100 97 95 88 82 82 75 92 87
7 7 7 7 8 8 8 8 8 9 10 10 12 12 14 16 15 15 14 19 24 29 39 48 55 61 64 64 64 98 100 100 99 89 100 100 100 100 100 100 100 100 100 100 100 100 100 100 99 98 98 100 100 100
10 10 8 9 9 9 9 11 11 14 17 19 22 25 26 24 27 41 57 69 70 84 82 88 77 62 70 86 100 100 100 100 100 100 100 100 100 100 100 100 100 100 100 100 100 100 100 100 100 100 100 98 84 86
14 12 10 10 10 9 12 15 15 15 20 25 30 35 46 46 60 74 94 100 100 94 77 91 90 90 100 100 100 96 100 100 100 100 100 100 100 100 100 100 100 100 99 100 100 100 99 99 97 79 76 93 71 54
24 20 15 14 14 12 13 14 14 20 40 46 51 58 65 64 58 62 64 76 60 53 46 54 75 80 80 100 100 95 100 100 100 100 100 100 100 100 100 100 94 97 100 92 78 78 80 74 82 94 77 58 61 73
35 31 30 20 19 22 22 21 24 19 27 35 36 35 56 59 88 70 52 56 55 58 54 49 63 75 72 75 98 90 91 72 70 92 92 100 83 70 86 80 91 97 87 76 80 85 78 86 73 66 69 78 82 88
45 47 44 44 30 30 34 31 26 28 34 31 29 29 32 30 33 36 37 38 39 38 38 44 49 52 54 60 89 77 76 78 64 58 55 54 54 53 61 55 55 59 64 71 72 71 77 74 52 54 66 69 72 75
95 73 67 58 59 53 51 48 42 47 51 43 45 45 42 38 40 39 42 54 42 38 40 45 53 56 59 59 58 58 64 60 67 72 72 80 86 93 89 76 75 76 71 71 68 64 74 74 73 66 62 63 66 64
98 99 86 78 78 70 68 61 55 63 69 61 54 65 61 57 56 49 52 59 58 65 73 59 65 68 64 68 83 80 79 76 79 94 94 99 83 61 55 51 57 56 57 58 59 57 59 58 56 56 54 52 54 57
100 100 100 100 97 92 89 87 86 83 83 79 80 79 82 65 76 78 82 66 72 71 69 67 72 81 85 93 81 71 82 82 84 93 95 96 66 52 52 52 52 54 56 56 57 58 59 59 57 55 53 50 47 44
96 96 99 100 100 100 100 100 99 100 100 100 98 97 96 92 90 91 93 92 96 88 81 90 92 87 87 77 68 65 61 59 58 60 64 64 65 64 64 62 59 57 56 55 53 52 50 47 43 40 37 34 32 28
81 81 84 86 90 92 95 97 99 100 100 99 100 99 100 99 100 96 98 99 96 89 81 82 83 79 75 70 66 64 61 59 57 56 55 54 53 53 53 51 49 46 43 40 36 34 34 32 30 27 24 22 22 21
96 100 96 94 89 88 86 83 78 75 76 79 81 82 85 87 84 82 77 72 69 70 70 68 68 71 74 75 71 64 59 56 54 54 52 51 53 53 48 44 41 39 36 33 28 26 24 21 18 14 11 10 9 8
88 88 90 87 92 97 91 84 85 86 82 77 74 72 70 65 60 58 58 59 59 57 54 53 52 52 52 50 47 44 41 40 42 42 37 34 31 28 26 23 20 17 17 16 14 12 9 9 8 6 6 5 4 4
90 88 88 90 92 96 95 89 88 86 78 67 60 49 36 26 21 20 19 18 17 16 16 18 19 20 20 20 21 21 21 20 19 18 17 16 15 14 12 10 9 9 8 7 7 6 6 5 4 4 4 3 3 3
80 76 76 74 71 71 70 69 61 54 48 42 29 22 17 14 13 11 10 10 10 10 10 9 9 9 8 8 8 7 8 7 7 7 6 6 6 6 5 5 5 5 5 4 4 4 4 4 3 3 2 2 2 3
44 44 43 39 34 32 26 25 25 23 19 15 13 11 8 7 6 6 6 6 5 5 4 4 4 4 4 4 4 4 4 4 4 4 4 4 4 4 4 4 4 4 4 3 3 3 2 2 2 2 2 2 2 2
23 20 18 16 13 11 10 9 9 8 7 6 6 6 6 6 5 5 5 5 4 4 4 4 4 3 3 3 3 3 3 3 3 3 3 3 3 3 3 3 3 2 2 2 2 2 3 2 2 2 2 2 2 1
13 10 9 7 6 6 6 5 5 5 5 5 5 5 5 4 4 4 4 4 4 3 3 3 3 3 3 3 3 3 3 3 3 3 2 2 2 2 2 2 3 3 3 2 2 2 2 2 2 2 2 1 1 1
7 7 6 6 6 5 4 4 4 4 4 4 4 4 4 4 4 3 3 3 3 3 3 3 3 2 2 2 2 2 2 2 2 2 2 2 3 3 3 2 2 2 2 2 2 2 2 1 1 1 1 1 1 1
7 6 6 5 4 4 4 5 4 4 4 4 4 4 3 3 3 2 2 2 2 2 2 2 2 2 2 2 3 3 3 3 3 3 2 2 2 2 2 2 2 2 2 2 2 1 1 1 1 1 1 1 1 1
5 5 5 4 5 5 5 4 4 3 3 3 3 2 2 2 2 2 2 2 3 3 3 3 3 3 3 2 2 2 2 2 2 2 2 2 2 2 2 2 2 2 1 1 1 1 1 1 1 1 1 1 1 1

GFSWCAN_250_rhum_045.txt.gz
RH
2 2 1 2 2 1 2 2 2 2 2 3 3 3 4 4 3 3 4 5 7 7 7 12 24 40 53 83 92 100 100 100 100 100 100 100 100 99 100 85 99 100 99 84 82 78 97 67 82 57 65 55 55 52
2 2 2 2 2 2 2 2 2 3 3 3 3 3 4 4 3 3 4 6 8 7 7 13 22 36 52 80 93 100 100 100 100 100 100 100 100 100 100 100 100 100 100 100 65 74 82 89 70 75 69 63 56 50
2 2 2 2 2 2 2 2 2 3 3 3 3 3 3 3 3 3 4 6 7 7 7 13 24 34 49 77 99 96 100 100 100 100 100 100 100 100 100 100 100 100 100 100 82 89 79 89 96 74 82 75 58 56
2 2 2 2 2 2 3 3 3 3 3 3 3 3 3 3 3 4 4 6 7 7 7 10 17 33 48 77 97 89 100 100 99 100 90 100 100 100 90 89 100 100 97 91 77 100 97 84 80 90 96 77 72 66
2 2 2 2 3 3 3 3 3 4 4 4 4 3 3 3 3 4 5 7 7 6 6 8 16 28 42 78 99 96 98 92 100 100 100 100 100 100 100 100 100 100 100 100 94 89 85 98 86 94 88 73 77 85
2 3 2 2 3 3 4 3 3 4 4 3 3 3 3 4 4 4 5 7 7 7 7 7 14 28 46 78 86 86 78 66 80 94 100 100 100 100 100 100 100 100 100 100 98 82 86 94 99 88 82 77 74 90
2 2 3 2 2 3 4 4 4 3 3 3 3 3 3 3 3 4 5 7 7 7 6 6 11 27 40 73 100 100 66 56 82 99 99 100 100 100 100 100 100 100 100 100 100 100 100 100 89 77 82 91 91 91
2 2 2 2 2 2 2 3 3 4 4 4 3 3 3 3 3 4 4 6 7 7 7 8 9 22 33 54 97 99 84 64 73 94 98 100 100 100 100 100 100 100 100 100 100 100 100 92 85 86 87 93 100 100
1 2 2 2 2 2 2 2 2 2 2 2 3 3 3 3 3 4 5 6 7 8 9 8 12 25 36 50 80 100 82 76 88 95 97 100 100 100 100 100 100 100 100 100 100 100 100 98 98 99 99 87 90 90
2 2 2 2 2 2 2 2 2 2 2 3 3 3 3 3 3 4 4 7 8 8 10 10 11 19 28 43 70 88 84 87 99 100 100 100 100 100 100 100 100 100 100 100 100 100 100 96 100 100 100 94 88 94
2 2 2 2 2 2 2 2 2 2 2 2 2 2 3 3 3 4 5 6 7 8 9 10 10 15 28 40 55 70 84 98 100 100 100 100 100 100 100 100 100 100 100 100 100 100 100 99 100 100 98 98 100 95
4 4 3 3 3 3 3 3 3 3 3 3 3 4 4 4 4 5 6 8 10 10 8 9 9 13 25 39 50 69 73 60 67 88 92 81 92 100 100 99 95 97 100 100 100 93 94 91 96 100 96 83 71 74
5 5 5 5 5 5 5 4 4 4 5 5 6 7 8 9 10 10 9 9 14 17 18 20 19 24 33 39 46 60 64 54 53 72 83 82 96 100 100 88 87 93 100 100 95 90 100 100 100 86 82 84 75 75
10 8 6 5 5 6 6 6 5 5 6 7 8 9 11 12 14 18 13 12 15 18 17 22 28 37 40 40 43 48 55 54 59 64 74 79 86 93 87 67 70 98 99 94 89 100 100 94 100 100 100 100 100 100
12 11 9 9 9 10 9 9 7 8 10 12 14 13 13 15 15 16 16 16 17 17 19 22 29 35 40 38 41 41 45 48 50 58 72 72 76 74 68 79 94 100 100 86 80 93 100 100 100 100 100 100 98 99
18 15 12 13 13 12 12 12 13 13 16 18 23 23 28 32 34 36 38 38 39 41 39 37 37 42 46 46 45 45 44 47 51 70 74 70 69 80 100 94 92 90 97 100 100 100 100 100 100 100 98 96 94 94
31 20 17 20 21 20 20 19 21 21 28 27 32 30 24 26 32 31 29 36 37 56 64 68 79 91 80 84 84 84 88 90 98 94 81 81 89 79 69 80 88 98 98 100 99 94 97 98 76 73 71 80 79 74
44 42 24 25 28 26 26 27 25 22 26 28 29 30 28 28 26 27 31 34 42 48 85 95 70 67 54 60 71 75 84 100 100 100 94 86 98 94 88 75 60 75 80 77 76 68 65 69 70 76 87 94 91 81
64 58 54 44 40 44 44 35 40 40 45 46 31 27 33 38 44 48 43 47 54 56 58 57 57 64 69 58 51 54 68 82 98 91 79 92 95 86 74 70 65 54 52 60 66 73 78 89 87 87 87 68 50 52
88 74 65 66 60 68 68 61 55 59 56 61 64 53 47 48 43 40 39 40 43 43 48 50 47 43 44 45 42 50 48 44 49 61 62 60 64 62 71 65 62 64 62 65 73 74 75 72 67 73 74 61 55 55
99 98 82 77 74 75 82 76 78 75 71 66 70 77 77 62 60 67 70 68 60 61 60 62 61 64 64 63 62 58 55 64 68 61 69 66 61 71 75 64 70 79 82 86 89 80 68 63 66 70 65 57 53 49
93 88 91 95 97 84 77 86 94 86 89 81 79 88 88 94 86 80 74 78 80 80 86 78 73 76 75 74 80 78 78 82 84 76 76 70 73 86 85 82 79 66 66 65 65 59 54 54 53 49 45 42 38 32
100 100 100 100 100 100 99 100 100 100 100 100 100 100 100 100 100 99 100 97 98 94 91 89 84 87 86 82 79 77 73 66 64 64 61 62 67 56 52 51 50 51 52 49 45 41 38 34 30 27 25 23 21 19
100 100 100 100 98 95 97 98 100 99 99 100 99 97 97 98 99 97 96 93 92 88 85 77 69 67 63 56 53 48 44 40 37 36 35 35 35 34 33 32 31 28 25 23 22 22 22 21 20 19 17 14 11 10
88 85 84 84 90 89 83 81 81 82 83 80 77 77 76 75 73 71 66 62 58 48 38 34 31 29 26 24 25 26 25 25 26 26 23 22 20 19 18 18 17 16 16 16 17 16 14 11 10 9 8 6 5 4
93 92 91 86 86 85 82 79 79 78 75 71 69 65 59 49 41 34 26 22 20 19 19 20 21 21 21 20 19 18 18 18 17 17 15 14 14 13 12 12 11 11 10 10 8 7 6 6 5 4 4 4 4 3
86 84 82 78 77 70 65 60 58 57 55 54 48 38 31 26 20 17 13 11 9 8 8 7 6 6 6 6 6 6 6 6 6 6 6 6 6 6 6 5 5 5 5 5 4 4 4 4 4 4 3 3 3 3
77 78 75 70 66 63 58 58 58 52 39 30 22 17 13 12 9 7 6 6 5 5 4 4 4 4 4 4 4 4 4 4 4 4 4 4 4 4 4 4 4 4 4 4 4 3 3 3 3 3 3 3 2 2
56 56 54 53 54 54 49 38 32 27 20 15 12 10 8 7 6 6 5 4 4 4 4 4 3 3 3 3 3 3 3 3 3 3 3 3 3 3 3 3 2 2 2 2 2 3 3 3 2 2 2 2 2 2
40 39 35 33 30 26 22 18 13 9 8 7 6 6 6 5 4 4 4 4 4 4 4 4 3 3 3 3 3 3 2 2 2 2 2 2 2 2 2 2 3 3 3 2 2 2 2 2 2 2 2 2 1 1
19 16 14 14 13 11 9 7 6 6 5 5 5 5 4 4 4 4 4 4 4 3 3 3 3 3 2 2 2 2 2 2 2 3 3 3 3 3 3 2 2 2 2 2 2 2 2 2 2 1 1 1 1 1
11 10 10 9 8 6 6 6 5 5 5 5 4 4 4 4 3 3 3 3 3 2 2 2 2 3 3 3 3 3 3 3 3 2 2 2 2 2 2 2 2 2 2 2 2 1 1 1 1 1 1 1 1 1
8 8 7 6 6 5 5 5 5 4 4 4 4 3 3 3 3 3 3 3 3 3 3 3 3 2 2 2 2 2 2 2 2 2 2 2 2 2 2 2 2 2 1 1 1 1 1 1 1 1 1 1 1 1